Chillicothe, MO

12:21 AM CDT on September 21, 2017 (GMT -0500)
Chillicothe

Weather History for KCDJ - November, 2012

Change the Weather History Date:

Wednesday, November 21, 2012

  Actual Average (KIRK) Record (KIRK)
Temperature  
Mean Temperature 50 °F -  
Max Temperature 69 °F 47 °F 69 °F (2010)
Min Temperature 32 °F 27 °F 0 °F (1937)
Degree Days  
Heating Degree Days 14    
Moisture  
Dew Point 37 °F    
Average Humidity 65    
Maximum Humidity 96    
Minimum Humidity 33    
Precipitation  
Precipitation 0.00 in - - ()
Sea Level Pressure  
Sea Level Pressure 30.15 in    
Wind  
Wind Speed 5 mph (South)    
Max Wind Speed 14 mph    
Max Gust Speed 23 mph    
Averages and records for this station are not official NWS values.
T = Trace of Precipitation, MM = Missing Value Source: NWS Daily Summary

Daily Weather History Graph

Daily Weather History Graph

Search for Another Location

Airport or City:

Trip Planner

Search our weather history database for the weather conditions in past years. The results will help you decide how hot, cold, wet, or windy it might be!

Date:

Astronomy

Nov. 21, 2012 Rise Set
Actual Time 7:06 AM CST 4:53 PM CST
Civil Twilight 6:37 AM CST 5:23 PM CST
Nautical Twilight 6:04 AM CST 5:56 PM CST
Astronomical Twilight 5:31 AM CST 6:28 PM CST
Moon 1:10 PM CST 12:26 AM CST
Length of Visible Light 10h 46m
Length of Day
9h 47m
First Quarter, 62% of the Moon is Illuminated
Nov 21
First Quarter
Nov 28
Full
Dec 6
Last Quarter
Dec 13
New
Dec 19
First Quarter

Hourly Weather History & Observations

Time (CST) Temp. Windchill Dew Point Humidity Pressure Visibility Wind Dir Wind Speed Gust Speed Precip Events Conditions
12:52 AM 36.0 °F - 33.1 °F 89% 30.23 in - Calm Calm - N/A   Unknown
1:52 AM 33.1 °F - 30.9 °F 92% 30.22 in - Calm Calm - N/A   Unknown
2:52 AM 34.0 °F - 32.0 °F 92% 30.23 in - Calm Calm - N/A   Unknown
3:52 AM 34.0 °F 31.0 °F 32.0 °F 92% 30.22 in - SSE 3.5 mph - N/A   Unknown
4:52 AM 32.0 °F 27.5 °F 30.0 °F 92% 30.23 in - South 4.6 mph - N/A   Unknown
5:52 AM 35.1 °F 32.2 °F 34.0 °F 96% 30.23 in - South 3.5 mph - N/A   Unknown
6:52 AM 32.0 °F 27.5 °F 30.0 °F 92% 30.24 in - South 4.6 mph - N/A   Unknown
7:52 AM 37.0 °F - 35.1 °F 93% 30.25 in - Calm Calm - N/A   Unknown
8:52 AM 45.0 °F 43.5 °F 41.0 °F 86% 30.25 in - SSE 3.5 mph - N/A   Unknown
9:52 AM 52.0 °F - 44.1 °F 74% 30.23 in - South 9.2 mph - N/A   Unknown
10:52 AM 57.9 °F - 44.1 °F 60% 30.22 in - South 13.8 mph - N/A   Unknown
11:52 AM 62.1 °F - 44.1 °F 52% 30.19 in - South 10.4 mph - N/A   Unknown
12:52 PM 66.9 °F - 41.0 °F 39% 30.15 in - SSW 12.7 mph - N/A   Unknown
1:52 PM 69.1 °F - 39.9 °F 35% 30.12 in - SSW 12.7 mph 23.0 mph N/A   Unknown
2:52 PM 69.1 °F - 39.0 °F 33% 30.09 in - South 11.5 mph 20.7 mph N/A   Unknown
3:52 PM 68.0 °F - 37.9 °F 33% 30.09 in - South 9.2 mph - N/A   Unknown
4:52 PM 64.0 °F - 37.9 °F 38% 30.08 in - South 8.1 mph - N/A   Unknown
5:52 PM 60.1 °F - 39.9 °F 47% 30.07 in - South 9.2 mph - N/A   Unknown
6:52 PM 57.0 °F - 39.9 °F 53% 30.07 in - SSE 6.9 mph - N/A   Unknown
7:52 PM 54.0 °F - 39.0 °F 57% 30.06 in - SSE 8.1 mph - N/A   Unknown
8:52 PM 57.0 °F - 39.0 °F 51% 30.04 in - South 10.4 mph - N/A   Unknown
9:52 PM 57.0 °F - 37.9 °F 49% 30.03 in - South 11.5 mph - N/A   Unknown
10:52 PM 55.9 °F - 37.9 °F 51% 30.01 in - South 9.2 mph - N/A   Unknown
11:52 PM 54.0 °F - 37.0 °F 53% 30.00 in - SSE 6.9 mph - N/A   Unknown